Location: Siloam Springs
(36.1881°N, 94.5403°W)
Time: 06:58:34
(UTC-05:00)

CUBESAT XI-V - Pass Details

Date: 30 May 2024
Orbit: 657 x 679 km, 98.2° (Epoch: 16 June)

Event Time Altitude Azimuth Distance (km) Brightness Sun altitude
Exits shadow 02:36:55 22° 92° (E) 1,439 ? -28.9°
Maximum altitude 02:38:05 24° 69° (ENE) 1,348 ? -28.8°
Drops below altitude 10° 02:41:43 10° 15° (NNE) 2,075 ? -28.5°
Sets 02:44:15 0° 2° (N) 2,991 ? -28.3°
